Home   Weather   Al Ain   Past weeks

Flag for United Arab Emirates Past Weather in Al Ain, Abu Dhabi, United Arab Emirates — Yesterday and Last 2 Weeks

Now
70 °F

Fog.


Feels Like: 70 °F
Forecast: 62 / 80 °F
Wind: 10 mph from North

Location: Al Ain International Airport

Current Time: Dec 8, 2016 at 4:32:12 am

Latest Report: Dec 8, 2016 at 4:00 am


Visibility: 1 mi

Pressure: 30.07 "Hg

Humidity: 94%

Dew Point: 68 °F

Location of Al AinLocation

Past Weather in Al Ain — Graph

°F

Al Ain Temperature Yesterday

Maximum temperature yesterday: 88 °F (at 2:00 pm)
Minimum temperature yesterday: 66 °F (at 6:00 am)
Average temperature yesterday: 76 °F

High & Low Weather Summary for the Past Weeks

 TemperatureHumidityPressure
High93 °F (Dec 3, 1:00 pm)100% (Dec 5, 4:00 am)30.18 "Hg (Dec 5, 4:00 am)
Low64 °F (Nov 28, 4:00 am)20% (Nov 28, 2:00 pm)29.92 "Hg (Nov 24, 3:00 pm)
Average76 °F55%30.06 "Hg
* Reported Nov 23 3:00 am — Dec 8 3:00 am, Al Ain, Weather by CustomWeather, © 2016

Note: Actual official high and low records may vary slightly from our data, if they occured in-between our weather recording intervals... More about our weather records

Advertising

Al Ain Weather History for the Previous 24 Hours

Scroll right to see more
 ConditionsComfort  
Time TempWeatherWind HumidityBarometerVisibility
3:00 am
Thu, Dec 8
68 °FFog.9 mph100%30.07 "Hg1 mi
2:00 am68 °FFog.9 mph94%30.07 "Hg0 mi
1:00 am68 °FFog.9 mph94%30.07 "Hg1 mi
12:00 am70 °FHaze.7 mph83%30.09 "Hg3 mi
11:00 pm
Wed, Dec 7
70 °FClear.5 mph83%30.09 "Hg5 mi
10:00 pm72 °FClear.7 mph65%30.09 "Hg10 mi
9:00 pm75 °FClear.6 mph57%30.09 "Hg10 mi
8:00 pm77 °FClear.7 mph54%30.09 "Hg10 mi
7:00 pm79 °FClear.5 mph51%30.07 "Hg6 mi
6:00 pm81 °FClear.10 mph48%30.07 "Hg5 mi
5:00 pm84 °FPassing clouds.13 mph37%30.04 "HgN/A
4:00 pm86 °FPassing clouds.13 mph25%30.04 "HgN/A
3:00 pm86 °FPassing clouds.12 mph31%30.04 "HgN/A
2:00 pm88 °FPassing clouds.12 mph27%30.04 "HgN/A
1:00 pm86 °FPassing clouds.8 mph29%30.07 "HgN/A
12:00 pm86 °FPassing clouds.12 mph33%30.09 "HgN/A
11:00 am82 °FSunny.7 mph42%30.12 "Hg10 mi
10:00 am81 °FClear.3 mph48%30.12 "Hg6 mi
9:00 am73 °FClear.5 mph57%30.12 "Hg6 mi
8:00 am70 °FClear.2 mph60%30.09 "Hg6 mi
7:00 am68 °FClear.7 mph64%30.09 "Hg5 mi
6:00 am66 °FClear.6 mph73%30.07 "Hg5 mi
5:00 am70 °FClear.6 mph69%30.04 "Hg5 mi
4:00 am70 °FClear.5 mph69%30.04 "Hg4 mi
Weather by CustomWeather, © 2016

See weather overviewHow to use our weather pages